User: anonymous   Login
Location: Caltech
(34.1382°N, 118.1253°W)
Time: 09:07:15
(UTC-07:00)
Language:

Spot 4 Rocket - Orbit

View from above orbital plane
View from above orbital plane
View from above satellite
View from above satellite

Ground track
Ground track

The orbit data is extracted from the following two-line orbital elements,

1 25261U 98017B   17291.87748660  .00000079  00000-0  44176-4 0  9999
2 25261  98.5584 237.6772 0004469  84.2762 275.8932 14.33615190 22736
Epoch (UTC): 18 October 2017 21:03:34
Eccentricity: 0.0004469
inclination: 98.5584°
perigee height: 776 km
apogee height: 783 km
right ascension of ascending node: 237.6772°
argument of perigee: 84.2762°
revolutions per day: 14.33615190
mean anomaly at epoch: 275.8932°
orbit number at epoch: 2273

The dashed part of the orbit path shows where the satellite is in the earth's shadow,  

DLR